This is the latest recevied weather packets stored in our database for station/object XE2RCS-34. If no packets are shown the sender has not sent any weather packets the latest 10 day(s).
| Time | Temp. | Humidity | Pressure | Rain* | Wind** | Luminosity | Snow |
|---|---|---|---|---|---|---|---|
| 1777929807 | 29.44° C | 48% | 1045.6 hPa | - | - | - | - |
| 1777928908 | 28.89° C | 47% | 1045.7 hPa | - | - | - | - |
| 1777928007 | 28.33° C | 48% | 1046 hPa | - | - | - | - |
| 1777927107 | 28.33° C | 47% | 1046.1 hPa | - | - | - | - |
| 1777926207 | 27.78° C | 47% | 1046.2 hPa | - | - | - | - |
| 1777925307 | 27.22° C | 45% | 1046.4 hPa | - | - | - | - |
| 1777924407 | 26.67° C | 43% | 1046.3 hPa | - | - | - | - |
| 1777923507 | 26.67° C | 43% | 1046.3 hPa | - | - | - | - |
| 1777922607 | 26.11° C | 41% | 1046.4 hPa | - | - | - | - |
| 1777921707 | 25.56° C | 43% | 1046.5 hPa | - | - | - | - |
| 1777920807 | 25° C | 49% | 1046.6 hPa | - | - | - | - |
| 1777919907 | 24.44° C | 47% | 1046.8 hPa | - | - | - | - |
| 1777919006 | 23.89° C | 50% | 1046.9 hPa | - | - | - | - |
| 1777918106 | 23.89° C | 52% | 1047.1 hPa | - | - | - | - |
| 1777917206 | 23.33° C | 52% | 1047.2 hPa | - | - | - | - |
| 1777916306 | 22.78° C | 52% | 1047.1 hPa | - | - | - | - |
| 1777915406 | 22.22° C | 56% | 1047.2 hPa | - | - | - | - |
| 1777914506 | 21.67° C | 56% | 1047.3 hPa | - | - | - | - |
| 1777913606 | 21.11° C | 56% | 1047.3 hPa | - | - | - | - |
| 1777912706 | 20.56° C | 56% | 1047.5 hPa | - | - | - | - |
| 1777911806 | 20° C | 56% | 1047.7 hPa | - | - | - | - |
| 1777910907 | 19.44° C | 56% | 1047.7 hPa | - | - | - | - |
| 1777910006 | 18.89° C | 56% | 1047.9 hPa | - | - | - | - |
| 1777909107 | 18.33° C | 56% | 1047.9 hPa | - | - | - | - |
| 1777908205 | 17.78° C | 56% | 1047.8 hPa | - | - | - | - |
* Rain since midnight (hover to see other rain measurements)
** Current wind speed in m/s (hover to see current wind gust speed)